, MO

(GMT )
Kansas City

Weather History for KMKC - May, 2013

Change the Weather History Date:

Sunday, May 19, 2013

  Actual Average Record
Temperature  
Mean Temperature 74 °F -  
Max Temperature 84 °F 74 °F 96 °F (1998)
Min Temperature 64 °F 55 °F 44 °F (2002)
Cooling Degree Days 9    
Growing Degree Days 24 (Base 50)    
Moisture  
Dew Point 62 °F    
Average Humidity 74    
Maximum Humidity 90    
Minimum Humidity 57    
Precipitation  
Precipitation 0.62 in - - ()
Sea Level Pressure  
Sea Level Pressure 29.70 in    
Wind  
Wind Speed 10 mph (South)    
Max Wind Speed 23 mph    
Max Gust Speed 37 mph    
Visibility 9 miles    
Events Rain , Thunderstorm    
Averages and records for this station are not official NWS values.
T = Trace of Precipitation, MM = Missing Value Source: NWS Daily Summary

Daily Weather History Graph

Daily Weather History Graph

Search for Another Location

Airport or City:

Trip Planner

Search our weather history database for the weather conditions in past years. The results will help you decide how hot, cold, wet, or windy it might be!

Date:

Astronomy

May. 19, 2013 Rise Set
Actual Time 6:01 AM CDT 8:28 PM CDT
Civil Twilight 5:31 AM CDT 8:59 PM CDT
Nautical Twilight 4:53 AM CDT 9:36 PM CDT
Astronomical Twilight 4:11 AM CDT 10:19 PM CDT
Moon 2:36 PM CDT (5/19) 2:22 AM CDT (5/19)
Length of Visible Light 15h 27m
Length of Day
14h 26m
Waxing Gibbous, 65% of the Moon is Illuminated
May 19
Waxing Gibbous
May 24
Full
May 31
Last Quarter
Jun 8
New
Jun 16
First Quarter

Hourly Weather History & Observations

Time (CDT) Temp. Heat Index Dew Point Humidity Pressure Visibility Wind Dir Wind Speed Gust Speed Precip Events Conditions
12:09 AM 78.8 °F - 69.8 °F 74% 29.79 in 10.0 mi South 6.9 mph - N/A   Overcast
12:54 AM 78.1 °F - 70.0 °F 76% 29.76 in 9.0 mi South 9.2 mph - N/A   Scattered Clouds
1:26 AM 73.4 °F - 57.2 °F 57% 29.82 in 10.0 mi NW 18.4 mph 36.8 mph N/A   Squalls
1:36 AM 71.6 °F - 57.2 °F 60% 29.83 in 10.0 mi NW 11.5 mph 24.2 mph 0.00 in Rain , Thunderstorm Light Rain
1:54 AM 66.9 °F - 59.0 °F 76% 29.81 in 10.0 mi NNW 9.2 mph - 0.00 in Rain , Thunderstorm Light Thunderstorms and Rain
2:09 AM 66.2 °F - 59.0 °F 78% 29.82 in 10.0 mi Variable 4.6 mph - 0.00 in Rain , Thunderstorm Light Rain
2:30 AM 66.2 °F - 60.8 °F 83% 29.80 in 10.0 mi Calm Calm - 0.00 in Rain Light Rain
2:54 AM 66.0 °F - 59.0 °F 78% 29.78 in 10.0 mi NE 3.5 mph - 0.00 in   Mostly Cloudy
3:15 AM 66.2 °F - 60.8 °F 83% 29.79 in 10.0 mi Calm Calm - 0.00 in Rain , Thunderstorm Light Rain
3:54 AM 64.9 °F - 61.0 °F 87% 29.76 in 2.5 mi Variable 3.5 mph - 0.12 in Rain , Thunderstorm Heavy Thunderstorms and Rain
4:08 AM 64.4 °F - 60.8 °F 88% 29.79 in 10.0 mi East 8.1 mph - 0.00 in Rain , Thunderstorm Light Rain
4:21 AM 66.2 °F - 60.8 °F 83% 29.78 in 10.0 mi East 10.4 mph - 0.00 in   Scattered Clouds
4:54 AM 64.9 °F - 61.0 °F 87% 29.72 in 10.0 mi East 12.7 mph - 0.00 in   Partly Cloudy
5:54 AM 64.0 °F - 61.0 °F 90% 29.70 in 10.0 mi East 3.5 mph - N/A   Clear
6:54 AM 66.2 °F - 60.8 °F 83% 29.80 in 10.0 mi SSW 6.9 mph - N/A   Partly Cloudy
7:33 AM 64.4 °F - 60.8 °F 88% 29.85 in 2.5 mi South 17.3 mph 27.6 mph 0.04 in Rain Rain
7:40 AM 64.4 °F - 60.8 °F 88% 29.83 in 6.0 mi South 10.4 mph 26.5 mph 0.05 in Rain Light Rain
7:54 AM 66.0 °F - 61.0 °F 84% 29.79 in 6.0 mi SSE 9.2 mph 21.9 mph 0.06 in Rain Light Rain
8:07 AM 66.2 °F - 62.6 °F 88% 29.80 in 6.0 mi SE 5.8 mph - 0.02 in Rain , Thunderstorm Rain
8:22 AM 66.2 °F - 60.8 °F 83% 29.73 in 7.0 mi East 11.5 mph - 0.05 in Rain Light Rain
8:54 AM 66.9 °F - 61.0 °F 81% 29.68 in 10.0 mi East 9.2 mph - 0.05 in   Partly Cloudy
9:54 AM 72.0 °F - 61.0 °F 68% 29.68 in 10.0 mi SE 11.5 mph - N/A   Clear
10:54 AM 77.0 °F - 61.0 °F 58% 29.66 in 10.0 mi SSE 16.1 mph 33.4 mph N/A   Clear
11:54 AM 80.1 °F 81.9 °F 64.9 °F 60% 29.67 in 10.0 mi South 23.0 mph 35.7 mph N/A   Clear
12:54 PM 80.1 °F 81.7 °F 64.0 °F 58% 29.66 in 10.0 mi SSE 15.0 mph 28.8 mph N/A   Partly Cloudy
1:54 PM 80.6 °F 82.3 °F 64.4 °F 58% 29.68 in 10.0 mi South 19.6 mph 27.6 mph N/A   Overcast
2:54 PM 80.6 °F 82.7 °F 66.2 °F 61% 29.65 in 10.0 mi South 15.0 mph 19.6 mph N/A   Overcast
3:54 PM 82.0 °F 84.9 °F 68.0 °F 62% 29.61 in 10.0 mi South 6.9 mph - N/A   Overcast
4:54 PM 84.0 °F 87.0 °F 68.0 °F 58% 29.57 in 10.0 mi South 11.5 mph 18.4 mph N/A   Partly Cloudy
5:54 PM 82.0 °F 84.1 °F 66.0 °F 58% 29.56 in 10.0 mi South 11.5 mph 21.9 mph N/A   Mostly Cloudy
6:54 PM 82.0 °F 84.1 °F 66.0 °F 58% 29.55 in 10.0 mi SW 10.4 mph 17.3 mph N/A Thunderstorm Mostly Cloudy
7:10 PM 80.6 °F 82.7 °F 66.2 °F 61% 29.58 in 10.0 mi SSW 10.4 mph - N/A   Mostly Cloudy
7:24 PM 80.6 °F 82.7 °F 66.2 °F 61% 29.57 in 10.0 mi SSW 11.5 mph - N/A Thunderstorm Mostly Cloudy
7:36 PM 75.2 °F - 66.2 °F 73% 29.60 in 1.8 mi SSW 23.0 mph 28.8 mph 0.15 in Rain , Thunderstorm Heavy Thunderstorms and Rain
7:52 PM 64.4 °F - 60.8 °F 88% 29.64 in 2.5 mi WSW 19.6 mph 36.8 mph 0.32 in Rain , Thunderstorm Thunderstorms and Rain
7:54 PM 64.9 °F - 60.1 °F 84% 29.62 in 2.5 mi WSW 19.6 mph 34.5 mph 0.32 in Rain , Thunderstorm Thunderstorms and Rain
8:01 PM 64.4 °F - 60.8 °F 88% 29.64 in 7.0 mi WSW 13.8 mph 27.6 mph 0.01 in Rain , Thunderstorm Thunderstorms and Rain
8:54 PM 66.0 °F - 59.0 °F 78% 29.58 in 10.0 mi East 6.9 mph - 0.07 in Rain , Thunderstorm Light Rain
9:15 PM 68.0 °F - 57.2 °F 68% 29.60 in 10.0 mi SW 9.2 mph 16.1 mph 0.00 in   Scattered Clouds
9:54 PM 68.0 °F - 57.0 °F 68% 29.63 in 10.0 mi SSW 11.5 mph - 0.00 in   Scattered Clouds
10:10 PM 68.0 °F - 57.2 °F 68% 29.62 in 10.0 mi SW 9.2 mph - N/A Thunderstorm Partly Cloudy
10:54 PM 68.0 °F - 57.9 °F 70% 29.66 in 10.0 mi South 10.4 mph - N/A   Scattered Clouds
11:04 PM 69.8 °F - 57.2 °F 64% 29.67 in 10.0 mi SSW 6.9 mph - 0.00 in Rain , Thunderstorm Light Thunderstorms and Rain
11:36 PM 68.0 °F - 59.0 °F 73% 29.69 in 10.0 mi Calm Calm - 0.00 in   Mostly Cloudy
11:54 PM 68.0 °F - 59.0 °F 73% 29.65 in 10.0 mi Calm Calm - 0.00 in   Scattered Clouds